AFR378E LFPG-KDTW

Flight info

Callsign AFR378E
Flight time N/A
Altitude 34000
Route ATREX DCT VESAN DCT RATUK DCT SOVAT L613 SANDY DCT OKSAW DCT TEWXI DCT VATRY DCT DIGAN DCT MOMIN DCT DOGAL/M081F340 NATA ALLRY/N0465F340 N484E ANATI DCT PESAC Q921 AGLUK Q941 TAKOL DCT YOW DCT TUKIR Q806 BOBTA TPGUN2
Aircraft B772/H-SDE2E3FGHIJ5LORVWXY/LB1D1

Departure

Time 2026-05-01 10:10
Airport Charles de Gaulle International Airport (LFPG)

Arrival

Time N/A
Airport Detroit Metropolitan Wayne County Airport (KDTW)
Time Latitude Longitude Altitude Speed Heading
2026-05-01 09:15 49.00265 2.59005 359 ft 0 kts 84°
2026-05-01 09:53 49.00265 2.59000 366 ft 3 kts 85°
2026-05-01 09:53 49.00263 2.58961 362 ft 3 kts 85°
2026-05-01 09:54 49.00262 2.58929 364 ft 4 kts 91°
2026-05-01 09:54 49.00265 2.58893 364 ft 4 kts 120°
2026-05-01 09:54 49.00276 2.58874 365 ft 4 kts 172°
2026-05-01 09:54 49.00301 2.58870 365 ft 3 kts 175°
2026-05-01 09:55 49.00305 2.58870 366 ft 0 kts 175°
2026-05-01 10:00 49.00304 2.58870 365 ft 0 kts 175°
2026-05-01 10:00 49.00299 2.58870 364 ft 2 kts 175°
2026-05-01 10:01 49.00279 2.58873 364 ft 4 kts 175°
2026-05-01 10:01 49.00246 2.58877 366 ft 6 kts 175°
2026-05-01 10:01 49.00201 2.58883 362 ft 7 kts 175°
2026-05-01 10:01 49.00144 2.58890 364 ft 9 kts 175°
2026-05-01 10:02 49.00090 2.58896 362 ft 7 kts 176°
2026-05-01 10:02 49.00047 2.58862 367 ft 7 kts 234°
2026-05-01 10:02 49.00038 2.58781 358 ft 9 kts 265°
2026-05-01 10:02 49.00033 2.58681 358 ft 10 kts 265°
2026-05-01 10:03 49.00026 2.58564 358 ft 12 kts 265°
2026-05-01 10:03 49.00019 2.58431 361 ft 13 kts 265°
2026-05-01 10:03 49.00011 2.58286 363 ft 15 kts 265°
2026-05-01 10:03 49.00003 2.58125 361 ft 16 kts 265°
2026-05-01 10:04 48.99994 2.57951 363 ft 17 kts 265°
2026-05-01 10:04 48.99984 2.57767 364 ft 18 kts 265°
2026-05-01 10:04 48.99973 2.57571 362 ft 19 kts 265°
2026-05-01 10:04 48.99963 2.57389 358 ft 17 kts 265°
2026-05-01 10:05 48.99953 2.57209 360 ft 17 kts 265°
2026-05-01 10:05 48.99944 2.57028 366 ft 17 kts 266°
2026-05-01 10:05 48.99934 2.56847 358 ft 17 kts 265°
2026-05-01 10:05 48.99925 2.56669 363 ft 17 kts 265°
2026-05-01 10:06 48.99915 2.56486 365 ft 17 kts 265°
2026-05-01 10:06 48.99906 2.56308 360 ft 17 kts 265°
2026-05-01 10:06 48.99896 2.56128 359 ft 17 kts 265°
2026-05-01 10:06 48.99891 2.55959 358 ft 14 kts 275°
2026-05-01 10:07 48.99899 2.55850 363 ft 10 kts 260°
2026-05-01 10:07 48.99843 2.55800 366 ft 11 kts 183°
2026-05-01 10:07 48.99779 2.55805 364 ft 7 kts 175°
2026-05-01 10:07 48.99734 2.55810 360 ft 5 kts 175°
2026-05-01 10:08 48.99647 2.55820 360 ft 8 kts 175°
2026-05-01 10:08 48.99611 2.55834 364 ft 5 kts 143°
2026-05-01 10:08 48.99604 2.55871 364 ft 3 kts 88°
2026-05-01 10:09 48.99607 2.55926 361 ft 13 kts 86°
2026-05-01 10:09 48.99625 2.56296 367 ft 66 kts 85°
2026-05-01 10:09 48.99681 2.57361 356 ft 133 kts 85°
2026-05-01 10:09 48.99787 2.59043 426 ft 179 kts 85°
2026-05-01 10:10 48.99894 2.60946 1143 ft 179 kts 88°
2026-05-01 10:10 48.99987 2.62870 1939 ft 184 kts 88°
2026-05-01 10:10 49.00191 2.66849 3340 ft 191 kts 88°
2026-05-01 10:11 49.00294 2.68887 3983 ft 199 kts 88°
2026-05-01 10:11 49.00405 2.71122 4209 ft 224 kts 88°
2026-05-01 10:11 49.00537 2.73596 4472 ft 245 kts 88°
2026-05-01 10:11 49.00674 2.76293 4887 ft 262 kts 88°
2026-05-01 10:12 49.00817 2.79108 5488 ft 269 kts 87°
2026-05-01 10:12 49.00917 2.80995 5942 ft 271 kts 87°
2026-05-01 10:12 49.02612 2.87041 7239 ft 285 kts 36°
2026-05-01 10:13 49.04419 2.88254 7862 ft 288 kts 10°
2026-05-01 10:13 49.06422 2.88212 8424 ft 292 kts 345°
2026-05-01 10:13 49.08307 2.87143 8891 ft 295 kts 336°
2026-05-01 10:14 49.12065 2.84466 9989 ft 300 kts 334°
2026-05-01 10:14 49.13962 2.83091 10469 ft 305 kts 334°
2026-05-01 10:14 49.15939 2.81662 10607 ft 323 kts 334°
2026-05-01 10:14 49.18029 2.80156 10744 ft 341 kts 335°
2026-05-01 10:15 49.20243 2.78572 10906 ft 362 kts 335°
2026-05-01 10:15 49.22571 2.76916 11311 ft 374 kts 335°
2026-05-01 10:15 49.24962 2.75220 11922 ft 383 kts 335°
2026-05-01 10:15 49.27390 2.73498 12717 ft 387 kts 335°
2026-05-01 10:16 49.29846 2.71758 13529 ft 391 kts 335°
2026-05-01 10:16 49.32337 2.69996 14228 ft 397 kts 335°
2026-05-01 10:16 49.36579 2.66981 15335 ft 405 kts 335°
2026-05-01 10:17 49.39116 2.65175 15998 ft 409 kts 335°
2026-05-01 10:17 49.44338 2.61456 17286 ft 418 kts 335°
2026-05-01 10:17 49.46998 2.59558 17900 ft 423 kts 335°
2026-05-01 10:18 49.52390 2.55702 19046 ft 431 kts 335°
2026-05-01 10:18 49.55114 2.53751 19577 ft 434 kts 335°
2026-05-01 10:18 49.57870 2.51774 20122 ft 437 kts 335°
2026-05-01 10:19 49.60636 2.49789 20644 ft 440 kts 335°
2026-05-01 10:19 49.63420 2.47789 21154 ft 443 kts 335°
2026-05-01 10:19 49.66229 2.45768 21650 ft 447 kts 335°
2026-05-01 10:20 49.71901 2.41676 22643 ft 453 kts 335°
2026-05-01 10:20 49.74765 2.39605 23121 ft 456 kts 336°
2026-05-01 10:20 49.77617 2.37542 23589 ft 459 kts 336°
2026-05-01 10:20 49.80553 2.35535 24021 ft 462 kts 339°
2026-05-01 10:21 49.83563 2.33737 24435 ft 464 kts 341°
2026-05-01 10:21 49.89678 2.30331 25257 ft 469 kts 341°
2026-05-01 10:21 49.92767 2.28604 25652 ft 472 kts 341°
2026-05-01 10:22 49.98972 2.25052 26436 ft 477 kts 340°
2026-05-01 10:22 50.05226 2.21408 27197 ft 483 kts 340°
2026-05-01 10:23 50.08339 2.19586 27572 ft 485 kts 340°
2026-05-01 10:23 50.14694 2.15861 28324 ft 490 kts 340°
2026-05-01 10:23 50.17897 2.13982 28669 ft 493 kts 340°
2026-05-01 10:24 50.24357 2.10184 29354 ft 498 kts 340°
2026-05-01 10:24 50.30884 2.06337 30004 ft 503 kts 340°
2026-05-01 10:25 50.37228 2.01605 30551 ft 508 kts 329°
2026-05-01 10:25 50.42930 1.95059 31246 ft 507 kts 319°
2026-05-01 10:26 50.45537 1.91461 31634 ft 505 kts 318°
2026-05-01 10:26 50.48154 1.87798 32037 ft 503 kts 317°
2026-05-01 10:26 50.53395 1.80517 32791 ft 501 kts 318°
2026-05-01 10:27 50.58640 1.73313 33544 ft 499 kts 318°
2026-05-01 10:27 50.63863 1.66139 34193 ft 500 kts 318°
2026-05-01 10:28 50.66489 1.62517 34234 ft 504 kts 318°
2026-05-01 10:28 50.74495 1.51433 34238 ft 513 kts 318°
2026-05-01 10:29 50.82561 1.40224 34233 ft 514 kts 318°
2026-05-01 10:30 50.93258 1.25289 34232 ft 513 kts 317°
2026-05-01 10:31 51.03818 1.10120 34228 ft 510 kts 310°
2026-05-01 10:32 51.07826 1.00911 34247 ft 505 kts 296°
2026-05-01 10:32 51.09265 0.95829 34243 ft 502 kts 289°
2026-05-01 10:33 51.14208 0.75080 34158 ft 504 kts 288°
2026-05-01 10:34 51.17982 0.59432 34110 ft 505 kts 288°
2026-05-01 10:34 51.20513 0.48976 34106 ft 505 kts 288°
2026-05-01 10:35 51.23585 0.36218 34106 ft 506 kts 288°
2026-05-01 10:35 51.26097 0.25715 34124 ft 507 kts 288°
2026-05-01 10:36 51.29849 0.09927 34219 ft 507 kts 288°
2026-05-01 10:37 51.32325 -0.00556 34208 ft 507 kts 288°
2026-05-01 10:37 51.36052 -0.16426 34206 ft 507 kts 288°
2026-05-01 10:38 51.38518 -0.26996 34189 ft 507 kts 288°
2026-05-01 10:38 51.40978 -0.37588 34187 ft 507 kts 288°
2026-05-01 10:39 51.43411 -0.48119 34185 ft 507 kts 288°
2026-05-01 10:39 51.45852 -0.58735 34187 ft 507 kts 288°
2026-05-01 10:40 51.48286 -0.69373 34187 ft 507 kts 288°
2026-05-01 10:40 51.50709 -0.80017 34180 ft 507 kts 287°
2026-05-01 10:41 51.53125 -0.90686 34159 ft 508 kts 287°
2026-05-01 10:42 51.56728 -1.06699 34160 ft 508 kts 287°
2026-05-01 10:42 51.59103 -1.17316 34157 ft 508 kts 287°
2026-05-01 10:43 51.61483 -1.28014 34160 ft 508 kts 287°
2026-05-01 10:43 51.63850 -1.38710 34161 ft 507 kts 287°
2026-05-01 10:44 51.66209 -1.49423 34159 ft 507 kts 287°
2026-05-01 10:44 51.68560 -1.60152 34155 ft 508 kts 287°
2026-05-01 10:45 51.71024 -1.70835 34169 ft 509 kts 292°
2026-05-01 10:45 51.74201 -1.81069 34167 ft 510 kts 295°
2026-05-01 10:46 51.77408 -1.91206 34169 ft 510 kts 294°
2026-05-01 10:46 51.80567 -2.01479 34160 ft 511 kts 293°
2026-05-01 10:47 51.83238 -2.12087 34169 ft 508 kts 288°
2026-05-01 10:47 51.85658 -2.22777 34164 ft 508 kts 287°
2026-05-01 10:48 51.88086 -2.33525 34165 ft 509 kts 288°
2026-05-01 10:48 51.90534 -2.44272 34165 ft 508 kts 288°
2026-05-01 10:49 51.92983 -2.55016 34152 ft 508 kts 288°
2026-05-01 10:49 51.95420 -2.65758 34163 ft 507 kts 288°
2026-05-01 10:50 51.97839 -2.76484 34170 ft 506 kts 288°
2026-05-01 10:50 52.00243 -2.87201 34166 ft 505 kts 288°
2026-05-01 10:51 52.02635 -2.97924 34170 ft 505 kts 288°
2026-05-01 10:51 52.05020 -3.08670 34169 ft 506 kts 287°
2026-05-01 10:52 52.07384 -3.19374 34166 ft 507 kts 287°
2026-05-01 10:52 52.09757 -3.30172 34164 ft 508 kts 287°
2026-05-01 10:53 52.12129 -3.41023 34164 ft 509 kts 287°
2026-05-01 10:53 52.14494 -3.51904 34171 ft 510 kts 287°
2026-05-01 10:54 52.16852 -3.62806 34179 ft 510 kts 287°
2026-05-01 10:54 52.19204 -3.73737 34176 ft 511 kts 287°
2026-05-01 10:55 52.21544 -3.84676 34170 ft 511 kts 287°
2026-05-01 10:55 52.23860 -3.95558 34172 ft 510 kts 286°
2026-05-01 10:56 52.26175 -4.06495 34178 ft 510 kts 286°
2026-05-01 10:56 52.28482 -4.17454 34172 ft 509 kts 286°
2026-05-01 10:57 52.30773 -4.28394 34169 ft 508 kts 286°
2026-05-01 10:57 52.33049 -4.39326 34179 ft 508 kts 286°
2026-05-01 10:58 52.35316 -4.50271 34168 ft 507 kts 285°
2026-05-01 10:58 52.37552 -4.61124 34173 ft 507 kts 285°
2026-05-01 10:59 52.39791 -4.72055 34174 ft 507 kts 285°
2026-05-01 10:59 52.42021 -4.83005 34177 ft 507 kts 285°
2026-05-01 11:00 52.44247 -4.93993 34177 ft 507 kts 285°
2026-05-01 11:00 52.46462 -5.04987 34177 ft 508 kts 285°
2026-05-01 11:01 52.48668 -5.15999 34176 ft 508 kts 285°
2026-05-01 11:01 52.50865 -5.27030 34180 ft 509 kts 285°
2026-05-01 11:02 52.53058 -5.38100 34174 ft 510 kts 285°
2026-05-01 11:02 52.55242 -5.49195 34169 ft 510 kts 284°
2026-05-01 11:03 52.57092 -5.60426 34170 ft 509 kts 280°
2026-05-01 11:03 52.58769 -5.71659 34162 ft 510 kts 280°
2026-05-01 11:04 52.60455 -5.82994 34165 ft 510 kts 280°
2026-05-01 11:04 52.62157 -5.94336 34153 ft 511 kts 280°
2026-05-01 11:05 52.63573 -6.03767 34150 ft 511 kts 280°
2026-05-01 11:05 52.65269 -6.15125 34152 ft 511 kts 280°
2026-05-01 11:06 52.66952 -6.26500 34153 ft 511 kts 279°
2026-05-01 11:06 52.68623 -6.37874 34137 ft 511 kts 279°
2026-05-01 11:07 52.71112 -6.54983 34138 ft 511 kts 279°
2026-05-01 11:07 52.72757 -6.66394 34142 ft 511 kts 279°
2026-05-01 11:08 52.74393 -6.77822 34136 ft 512 kts 279°
2026-05-01 11:09 52.76817 -6.94917 34135 ft 512 kts 279°
2026-05-01 11:09 52.78429 -7.06394 34138 ft 512 kts 278°
2026-05-01 11:10 52.80826 -7.23627 34121 ft 513 kts 278°
2026-05-01 11:10 52.82409 -7.35115 34129 ft 512 kts 278°
2026-05-01 11:11 52.83969 -7.46528 34127 ft 512 kts 278°
2026-05-01 11:11 52.85532 -7.58050 34128 ft 512 kts 278°
2026-05-01 11:12 52.87082 -7.69566 34122 ft 513 kts 278°
2026-05-01 11:12 52.88621 -7.81093 34125 ft 513 kts 277°
2026-05-01 11:13 52.90150 -7.92631 34113 ft 513 kts 277°
2026-05-01 11:13 52.91670 -8.04203 34120 ft 514 kts 277°
2026-05-01 11:14 52.93185 -8.15815 34290 ft 516 kts 277°
2026-05-01 11:14 52.93943 -8.21631 34581 ft 515 kts 278°
2026-05-01 11:14 52.94769 -8.27414 34900 ft 513 kts 279°
2026-05-01 11:15 52.95635 -8.33071 35225 ft 511 kts 280°
2026-05-01 11:15 52.96529 -8.38777 35544 ft 509 kts 280°
2026-05-01 11:15 52.97417 -8.44468 35825 ft 508 kts 280°
2026-05-01 11:15 52.98294 -8.50167 36069 ft 507 kts 280°
2026-05-01 11:16 52.99145 -8.55777 36326 ft 506 kts 280°
2026-05-01 11:16 52.99994 -8.61450 36589 ft 505 kts 280°
2026-05-01 11:16 53.00834 -8.67099 36833 ft 504 kts 280°
2026-05-01 11:16 53.01669 -8.72748 37078 ft 503 kts 280°
2026-05-01 11:17 53.02500 -8.78392 37319 ft 502 kts 280°
2026-05-01 11:17 53.03327 -8.84018 37549 ft 501 kts 280°
2026-05-01 11:17 53.04151 -8.89643 37776 ft 500 kts 280°
2026-05-01 11:17 53.04970 -8.95253 37975 ft 500 kts 280°
2026-05-01 11:18 53.06603 -9.06503 38085 ft 502 kts 280°
2026-05-01 11:18 53.08229 -9.17777 38093 ft 500 kts 280°
2026-05-01 11:19 53.09838 -9.29004 38092 ft 497 kts 280°
2026-05-01 11:19 53.11452 -9.40191 38094 ft 496 kts 282°
2026-05-01 11:20 53.13420 -9.51217 38096 ft 497 kts 284°
2026-05-01 11:20 53.15481 -9.62201 38099 ft 497 kts 284°
2026-05-01 11:21 53.17525 -9.73218 38099 ft 498 kts 284°
2026-05-01 11:21 53.19528 -9.84218 38105 ft 499 kts 284°
2026-05-01 11:22 53.21530 -9.95328 38101 ft 501 kts 284°
2026-05-01 11:22 53.23526 -10.06482 38100 ft 501 kts 283°
2026-05-01 11:23 53.25514 -10.17650 38098 ft 502 kts 283°
2026-05-01 11:23 53.27496 -10.28843 38096 ft 502 kts 283°
2026-05-01 11:24 53.29468 -10.40055 38110 ft 502 kts 284°
2026-05-01 11:25 53.32382 -10.56746 38085 ft 499 kts 284°
2026-05-01 11:25 53.35262 -10.73399 38083 ft 495 kts 283°
2026-05-01 11:26 53.38101 -10.89979 38081 ft 492 kts 283°
2026-05-01 11:27 53.39973 -11.00995 38078 ft 492 kts 283°
2026-05-01 11:27 53.41836 -11.12030 38074 ft 492 kts 283°
2026-05-01 11:28 53.43676 -11.22995 38075 ft 492 kts 283°
2026-05-01 11:28 53.45522 -11.34071 38072 ft 493 kts 283°
2026-05-01 11:29 53.48279 -11.50741 38071 ft 495 kts 283°